Le nostre stazioni meteo in Italia

Pubblicità
Il mio iltempo24.it
Pantelleria, Italia (16470): Temperatura & dewpoint: 07.12.2019 22:00:00 - 13.12.2019 22:00:00 (CET)Pantelleria, Italia (16470): velocità del vento: 07.12.2019 22:00:00 - 13.12.2019 22:00:00 (CET)Pantelleria, Italia (16470): direzione del vento: 07.12.2019 22:00:00 - 13.12.2019 22:00:00 (CET)Pantelleria, Italia (16470): visibility: 07.12.2019 22:00:00 - 13.12.2019 22:00:00 (CET)
Data & Tempo tt [°C] td [°C] ff [km/h] ff [kn] dd vv [km]
13.12.2019 22:00:00 - - - - - -
13.12.2019 21:00:00 - - - - - -
13.12.2019 20:00:00 16,0 14,0 39 21 SO 8
13.12.2019 19:00:00 15,0 13,0 42 23 SSO 8
13.12.2019 18:00:00 14,0 13,0 44 24 SSO 8
13.12.2019 17:00:00 14,0 12,0 39 21 SSO 8
13.12.2019 16:00:00 14,0 12,0 37 20 SSO 10
13.12.2019 15:00:00 14,0 11,0 34 18 SSO 10
13.12.2019 14:00:00 14,0 11,0 41 22 SSO 10
13.12.2019 13:00:00 13,0 10,0 39 21 SSO 10
13.12.2019 12:00:00 13,0 10,0 34 18 SSO 10
13.12.2019 11:00:00 12,0 10,0 35 19 SO 10
13.12.2019 10:00:00 12,0 9,0 34 18 SSO 10
13.12.2019 09:00:00 13,0 8,0 35 19 SSO 10
13.12.2019 08:00:00 13,0 7,0 35 19 SSO 10
13.12.2019 07:00:00 13,0 9,0 28 15 SO 10
13.12.2019 06:00:00 - - - - - -
13.12.2019 05:00:00 - - - - - -
13.12.2019 04:00:00 - - - - - -
13.12.2019 03:00:00 - - - - - -
13.12.2019 02:00:00 - - - - - -
13.12.2019 01:00:00 - - - - - -
13.12.2019 00:00:00 - - - - - -
12.12.2019 23:00:00 - - - - - -
12.12.2019 22:00:00 - - - - - -
12.12.2019 21:00:00 - - - - - -
12.12.2019 20:00:00 13,0 10,0 39 21 SO 10
12.12.2019 19:00:00 13,0 11,0 35 19 SO 10
12.12.2019 18:00:00 13,0 11,0 37 20 SO 10
12.12.2019 17:00:00 11,0 10,0 39 21 OSO 10
12.12.2019 16:00:00 13,0 9,0 26 14 OSO 10
12.12.2019 15:00:00 14,0 9,0 29 16 O 10
12.12.2019 14:00:00 13,0 9,0 35 19 O 10
12.12.2019 13:00:00 14,0 9,0 37 20 O 10
12.12.2019 12:00:00 14,0 7,0 31 17 O 10
12.12.2019 11:00:00 14,0 8,0 34 18 O 10
12.12.2019 10:00:00 13,0 8,0 41 22 ONO 10
12.12.2019 09:00:00 13,0 8,0 39 21 ONO 10
12.12.2019 08:00:00 12,0 11,0 35 19 O 10
12.12.2019 07:00:00 12,0 12,0 24 13 OSO 5
12.12.2019 06:00:00 - - - - - -
12.12.2019 05:00:00 - - - - - -
12.12.2019 04:00:00 - - - - - -
12.12.2019 03:00:00 - - - - - -
12.12.2019 02:00:00 - - - - - -
12.12.2019 01:00:00 - - - - - -
12.12.2019 00:00:00 - - - - - -
11.12.2019 23:00:00 - - - - - -
11.12.2019 22:00:00 - - - - - -
11.12.2019 21:00:00 - - - - - -
11.12.2019 20:00:00 12,0 4,0 26 14 ONO 10
11.12.2019 19:00:00 12,0 5,0 31 17 ONO 10
11.12.2019 18:00:00 12,0 5,0 28 15 ONO 10
11.12.2019 17:00:00 12,0 7,0 34 18 NO 10
11.12.2019 16:00:00 13,0 6,0 31 17 ONO 10
11.12.2019 15:00:00 13,0 7,0 35 19 ONO 10
11.12.2019 14:00:00 14,0 8,0 34 18 ONO 10
11.12.2019 13:00:00 13,0 8,0 31 17 ONO 10
11.12.2019 12:00:00 14,0 9,0 28 15 ONO 10
11.12.2019 11:00:00 14,0 9,0 28 15 NO 10
11.12.2019 10:00:00 13,0 11,0 28 15 NO 10
11.12.2019 09:00:00 14,0 10,0 31 17 NNO 10
11.12.2019 08:00:00 13,0 11,0 31 17 NO 10
11.12.2019 07:00:00 11,0 11,0 13 7 ONO 10
11.12.2019 06:00:00 - - - - - -
11.12.2019 05:00:00 - - - - - -
11.12.2019 04:00:00 - - - - - -
11.12.2019 03:00:00 - - - - - -
11.12.2019 02:00:00 - - - - - -
11.12.2019 01:00:00 - - - - - -
11.12.2019 00:00:00 - - - - - -
10.12.2019 23:00:00 - - - - - -
10.12.2019 22:00:00 - - - - - -
10.12.2019 21:00:00 - - - - - -
10.12.2019 20:00:00 11,0 8,0 18 10 N 10
10.12.2019 19:00:00 10,0 8,0 9 5 O 10
10.12.2019 18:00:00 10,0 10,0 8 4 - 10
10.12.2019 17:00:00 10,0 10,0 4 2 SE 10
10.12.2019 16:00:00 9,0 9,0 34 18 SSO 10
10.12.2019 15:00:00 9,0 8,0 34 18 SO 10
10.12.2019 14:00:00 10,0 9,0 35 19 SO 10
10.12.2019 13:00:00 12,0 9,0 26 14 OSO 10
10.12.2019 12:00:00 12,0 9,0 41 22 SO 10
10.12.2019 11:00:00 12,0 7,0 42 23 OSO 10
10.12.2019 10:00:00 12,0 7,0 35 19 O 10
10.12.2019 09:00:00 12,0 9,0 34 18 OSO 10
10.12.2019 08:00:00 11,0 9,0 39 21 SO 10
10.12.2019 07:00:00 12,0 9,0 44 24 OSO 10
10.12.2019 06:00:00 - - - - - -
10.12.2019 05:00:00 - - - - - -
10.12.2019 04:00:00 - - - - - -
10.12.2019 03:00:00 - - - - - -
10.12.2019 02:00:00 - - - - - -
10.12.2019 01:00:00 - - - - - -
10.12.2019 00:00:00 - - - - - -
09.12.2019 23:00:00 - - - - - -
09.12.2019 22:00:00 - - - - - -
09.12.2019 21:00:00 - - - - - -
09.12.2019 20:00:00 14,0 11,0 21 11 O 10
09.12.2019 19:00:00 14,0 12,0 21 11 ONO 10
09.12.2019 18:00:00 15,0 12,0 24 13 O 10
09.12.2019 17:00:00 15,0 14,0 21 11 ONO 10
09.12.2019 16:00:00 15,0 13,0 22 12 ONO 10
09.12.2019 15:00:00 16,0 13,0 24 13 ONO 10
09.12.2019 14:00:00 15,0 12,0 24 13 ONO 10
09.12.2019 13:00:00 16,0 12,0 24 13 ONO 10
09.12.2019 12:00:00 15,0 12,0 28 15 ONO 10
09.12.2019 11:00:00 15,0 13,0 26 14 ONO 10
09.12.2019 10:00:00 13,0 13,0 13 7 O 10
09.12.2019 09:00:00 13,0 13,0 13 7 ONO 8
09.12.2019 08:00:00 12,0 12,0 16 9 O 8
09.12.2019 07:00:00 12,0 11,0 15 8 NO 10
09.12.2019 06:00:00 - - - - - -
09.12.2019 05:00:00 - - - - - -
09.12.2019 04:00:00 - - - - - -
09.12.2019 03:00:00 - - - - - -
09.12.2019 02:00:00 - - - - - -
09.12.2019 01:00:00 - - - - - -
09.12.2019 00:00:00 - - - - - -
08.12.2019 23:00:00 - - - - - -
08.12.2019 22:00:00 - - - - - -
08.12.2019 21:00:00 - - - - - -
08.12.2019 20:00:00 15,0 8,0 15 8 ENE 10
08.12.2019 19:00:00 14,0 13,0 15 8 E 10
08.12.2019 18:00:00 14,0 14,0 9 5 ENE 10
08.12.2019 17:00:00 14,0 14,0 9 5 NE 10
08.12.2019 16:00:00 16,0 14,0 9 5 NNE 10
08.12.2019 15:00:00 17,0 14,0 8 4 NE 10
08.12.2019 14:00:00 18,0 14,0 11 6 N 10
08.12.2019 13:00:00 16,0 13,0 11 6 NNE 10
08.12.2019 12:00:00 17,0 12,0 13 7 NNE 10
08.12.2019 11:00:00 16,0 10,0 11 6 ENE 10
08.12.2019 10:00:00 14,0 12,0 9 5 E 10
08.12.2019 09:00:00 14,0 12,0 2 1 - 10
08.12.2019 08:00:00 - - 11 6 E 10
08.12.2019 07:00:00 12,0 10,0 9 5 S 10
08.12.2019 06:00:00 - - - - - -
08.12.2019 05:00:00 - - - - - -
08.12.2019 04:00:00 - - - - - -
08.12.2019 03:00:00 - - - - - -
08.12.2019 02:00:00 - - - - - -
08.12.2019 01:00:00 - - - - - -
08.12.2019 00:00:00 - - - - - -
07.12.2019 23:00:00 - - - - - -
07.12.2019 22:00:00 - - - - - -

tt = Temperatura
td = dewpoint
ff = velocità del vento
dd = direzione del vento
vv = visibility

Stazioni seguenti

WeatherPro
AMSI
MeteoEarth